Preview of NWS' New Version of Forecast
This preview is not operational and should not be used for support decisions.

Regional Weather Roundup (RWR)

Issued by National Weather Service (NWS)

                            
000
ASUS42 KTBW 160817
RWRFL 
FLORIDA REGIONAL WEATHER ROUNDUP
NATIONAL WEATHER SERVICE TAMPA BAY RUSKIN FL
300 AM EST SAT FEB 16 2019

NOTE: "FAIR" INDICATES FEW OR NO CLOUDS BELOW 12,000 FEET WITH NO
SIGNIFICANT WEATHER AND/OR OBSTRUCTIONS TO VISIBILITY.

FLZ001>010-012>015-112-114-115-160900-
PANHANDLE FLORIDA
  
CITY           SKY/WX    TMP DP  RH WIND       PRES   REMARKS
PENSACOLA      MOCLDY    65  61  87 W7        29.83F                  
PENSACOLA NAS  MOCLDY    65  63  93 SW6       29.83F                  
MILTON NAS     FAIR      63  62  97 SW7       29.82                   
CRESTVIEW      CLOUDY    64  62  93 S6        29.84F                  
DUKE FIELD     MOCLDY    65  65 100 SW6       29.83F                  
VALPARAISO     CLOUDY    66  64  94 CALM      29.83F                  
MARY ESTHER    CLOUDY    65  63  94 CALM      29.83                   
PANAMA CITY    CLOUDY    63  61  93 S5        29.84F                  
TYNDALL AFB    FAIR      62  60  94 S9        29.85S                  
APALACHICOLA   FAIR      61  59  93 S6        29.85F                  

STATION/POSITION SKY/WX   TEMP    WIND        PRES    WAVE   SWELL
                          AIR SEA DIR/SP/G            HT/PER HT/PER
                          (F)     (DEG/KT/KT) (MB)    (FT/S) (FT/S)
30.1N   87.6W              65     220/ 10/ 12 1010.6F   3/ 5   3/ 5
29.2N   88.2W                     230/ 12/ 14 1011.4F   4/ 5   2/12
PANAMA CITY BEAC           63 62  170/  7/  8 1010.9F
TOWER C                    65     180/ 12/ 13 1011.3F

$$
FLZ011-016>038-118-127-128-134-139-239-160900-
NORTH FLORIDA
  
CITY           SKY/WX    TMP DP  RH WIND       PRES   REMARKS
MARIANNA       CLOUDY    62  60  93 S10       29.83F                  
TALLAHASSEE    CLOUDY    60  59  96 SE5       29.86F                  
PERRY          FOG       54  53  97 CALM      29.90S VSB 1/4          
LIVE OAK       MOCLDY    52  52 100 CALM      29.89S                  
CROSS CITY     FAIR      49  48  97 CALM      29.90F                  
LAKE CITY      FAIR      54  50  87 CALM      29.89F                  
GAINESVILLE    FAIR      54  49  83 CALM      29.92F                  
WILLISTON        N/A    N/A N/A N/A MISG        N/A                   
PALATKA        MOCLDY    50  50 100 CALM      29.91S                  
MAYPORT NAS    MOCLDY    56  54  93 SW5       29.88F                  
JACKSONVILLE   MOCLDY    54  50  86 CALM      29.88F                  
JAX NAS        MOCLDY    59  51  75 SW3       29.90S                  
JAX CECIL      FAIR      50  48  93 CALM      29.89S                  
FERNANDINA BEA MOCLDY    57  53  88 SW7       29.88F                  
ST AUGUSTINE   FAIR      57  53  86 S3        29.91S                  
PALM COAST     FAIR      52  51  97 CALM      29.90F                  

STATION/POSITION SKY/WX   TEMP    WIND        PRES    WAVE   SWELL
                          AIR SEA DIR/SP/G            HT/PER HT/PER
                          (F)     (DEG/KT/KT) (MB)    (FT/S) (FT/S)
SHELL POINT      NOT AVBL
KEATON BEACH               61     200/  8/ 10 1012.0F
CEDAR KEY                  62     230/  3/  4 1012.7S
FERNANDINA                 60 59  180/  4/  6 1012.4F
30.7N   81.3W                 57                N/A     2/ 7
MAYPORT                    59 60  220/  4/  5 1011.9F
31.4N   80.9W              59 57  190/ 12/ 14 1010.7F   3/ 7   2/ 7
ST AUGUSTINE               59 59  210/  4/  5 1012.6F

$$
FLZ040-043>046-052-053-057-058-063-144-160900-
INTERIOR CENTRAL FLORIDA
  
CITY           SKY/WX    TMP DP  RH WIND       PRES   REMARKS
OCALA          FAIR      52  50  93 CALM      29.91S                  
LEESBURG       FAIR      59  57  93 CALM      29.93R                  
SANFORD        FAIR      58  54  86 CALM      29.90F                  
ORLANDO EXEC   FAIR      60  55  83 CALM      29.90F                  
ORLANDO INTL   MOCLDY    56  54  93 SW3       29.91S                  
KISSIMMEE      FAIR      56  55  97 CALM      29.91F                  
WINTER HAVEN   FAIR      59  54  83 CALM      29.92F                  
BARTOW         FAIR      55  54  94 CALM      29.90F                  
SEBRING        FAIR      54  52  91 CALM      29.91S                  
OKEECHOBEE     FAIR      52  52 100 CALM      29.90F                  

$$
FLZ041-047-054-059-064-141-147-160900-
EAST CENTRAL FLORIDA
  
CITY           SKY/WX    TMP DP  RH WIND       PRES   REMARKS
DAYTONA BEACH  FAIR      56  56 100 CALM      29.91R                  
DELAND         FAIR      54  54 100 CALM      29.91S                  
JFK SPACE CTR  FAIR      57  54  88 CALM      29.89S                  
CAPE CANAVERAL FAIR      57  55  94 CALM      29.89S                  
PATRICK AFB    FAIR      62  61  99 NW6       29.90S                  
MELBOURNE      FAIR      60  56  86 W6        29.90F                  
VERO BEACH     FAIR      58  56  93 W5        29.90F                  
FT PIERCE      FAIR      57  54  89 NW3       29.90F                  
STUART         FAIR      61  55  82 SW3       29.91F                  

STATION/POSITION SKY/WX   TEMP    WIND        PRES    WAVE   SWELL
                          AIR SEA DIR/SP/G            HT/PER HT/PER
                          (F)     (DEG/KT/KT) (MB)    (FT/S) (FT/S)
28.5N   80.2W              66     300/  6/  8 1012.8F   3/ 8   3/ 8
28.9N   78.5W              72 75  180/ 10/ 14 1012.6F   4/ 8   3/ 8
TRIDENT PIER               62 65  280/  3/  3 1013.6F
28.4N   80.5W                 62                N/A     2/ 8

$$
FLZ050-056-061-142-242-148-248-149-249-151-251-155-255-
160-260-160900-
WEST CENTRAL FLORIDA
  
CITY           SKY/WX    TMP DP  RH WIND       PRES   REMARKS
CRYSTAL RIVER  FAIR      50  50 100 CALM      29.91R                  
INVERNESS      FOG       52  52 100 CALM      29.93R VSB 1            
BROOKSVILLE      N/A     52  51  97 CALM      29.91S VSB 1/4          
CLEARWATER AIR FAIR      59  59 100 CALM      29.89S                  
ST PETE CLEARW FAIR      59  56  89 S3        29.89F FOG              
TAMPA INTL     FAIR      63  60  90 CALM      29.90F                  
TAMPA EXEC     FOG       52  52 100 CALM      29.91S VSB 1            
PLANT CITY     FAIR      57  55  94 CALM      29.92F FOG              
MACDILL AFB    FAIR      63  60  89 CALM      29.89F                  
PETER O KNIGHT FAIR     N/A N/A N/A S5        29.90F                  
ST PETERSBURG  FAIR      62  61  96 SW5       29.88F                  
SARASOTA       FAIR      59  58  96 SE5       29.87F                  
VENICE         FAIR      64  64 100 S7        29.89F                  

STATION/POSITION SKY/WX   TEMP    WIND        PRES    WAVE   SWELL
                          AIR SEA DIR/SP/G            HT/PER HT/PER
                          (F)     (DEG/KT/KT) (MB)    (FT/S) (FT/S)
27.3N   84.2W                 70                N/A     2/ 3
CLEARWATER BEACH           65 66  160/  6/  7 1012.4F
MIDDLE TAMPA BAY           65     200/  6/  6 1012.5F
VENICE                     67 66  190/  9/ 10   N/A

$$
FLZ066-069-070-075>078-162-262-165-265-160900-
SOUTHWEST FLORIDA AND KEYS
  
CITY           SKY/WX    TMP DP  RH WIND       PRES   REMARKS
PUNTA GORDA    FAIR      58  56  93 CALM      29.92S                  
FT MYERS       FAIR      60  59  96 CALM      29.90F                  
SOUTHWEST INTL FAIR      60  59  96 CALM      29.91F                  
NAPLES         FAIR      62  61  96 S3        29.89F                  
MARCO ISLAND   MOCLDY    61  61 100 CALM      29.91F FOG              
IMMOKALEE      FAIR      57  55  94 CALM      29.89F                  
MARATHON       FAIR      69  62  78 CALM      29.92F                  
KEY WEST NAS   FAIR      70  64  81 E3        29.91F                  
KEY WEST INTL  FAIR      70  65  84 NE3       29.92F                  

STATION/POSITION SKY/WX   TEMP    WIND        PRES    WAVE   SWELL
                          AIR SEA DIR/SP/G            HT/PER HT/PER
                          (F)     (DEG/KT/KT) (MB)    (FT/S) (FT/S)
NAPLES                     68 70  120/  2/  3 1012.4F
26.0N   85.6W              76 80  200/ 17/ 21 1011.5
DRY TORTUGAS               73        CALM     1012.9F
SAND KEY                   72                 1013.1F
SOMBRERO KEY               74                 1012.6F
LONG KEY                   72 73   40/  6/  7 1013.0F
MOLASSES REEF              71 76  350/  6/  7 1013.4F

$$
FLZ067-068-071>074-168-172>174-160900-
SOUTHEAST FLORIDA 
  
CITY           SKY/WX    TMP DP  RH WIND       PRES   REMARKS
W PALM BEACH   FAIR      62  56  80 W6        29.91F                  
FT LAUDER-EXEC FAIR      62  59  90 W3        29.91F                  
FT LAUDERDALE  FAIR      66  58  75 W3        29.90F                  
POMPANO BEACH  FAIR      65  54  67 W7        29.91F                  
PEMBROKE PINES FAIR      64  54  69 W3        29.92F                  
OPA LOCKA      FAIR      64  56  75 W7        29.92F                  
MIAMI          FAIR      66  60  81 W3        29.92F                  
WEST KENDALL   FAIR      62  58  86 W3        29.92F                  
HOMESTEAD      FAIR      61  59  94 CALM      29.91F                  

STATION/POSITION SKY/WX   TEMP    WIND        PRES    WAVE   SWELL
                          AIR SEA DIR/SP/G            HT/PER HT/PER
                          (F)     (DEG/KT/KT) (MB)    (FT/S) (FT/S)
PORT EVERGLADES            69     290/  7/  9 1013.0F
VIRGINIA KEY               70 75  280/  3/  5 1012.5F
LAKE WORTH                 65 76  320/  5/  7 1013.9F
FOWEY ROCKS                71 75  280/  7/  7 1013.5F
SETTLEMENT POINT           73     190/ 10/ 12 1012.4F

$$